User: anonymous   Login
Location: Vallejo Observatory
(38.1221°N, 122.2109°W)
Time: 23:38:35
(UTC-08:00)
Language:

MOS 1 Rocket - Orbit

View from above orbital plane
View from above orbital plane
View from above satellite
View from above satellite

Ground track
Ground track

The orbit data is extracted from the following two-line orbital elements,

1 17528U 87018B   17058.89152866  .00000110  00000-0  34022-4 0  9990
2 17528  97.4371  28.4208 0150817 279.9551 105.5999 14.50745919584033
Epoch (UTC): 27 February 2017 21:23:48
Eccentricity: 0.0150817
inclination: 97.4371°
perigee height: 616 km
apogee height: 830 km
right ascension of ascending node: 28.4208°
argument of perigee: 279.9551°
revolutions per day: 14.50745919
mean anomaly at epoch: 105.5999°
orbit number at epoch: 58403

The dashed part of the orbit path shows where the satellite is in the earth's shadow,  

DLR